Location: Unspecified
(40.9447°N, 78.9903°W)
Time: 00:13:15
(UTC-04:00)

Okean 3 - Pass Details

Date: 01 August 2021
Orbit: 574 x 601 km, 82.5° (Epoch: 19 September)

Event Time Altitude Azimuth Distance (km) Brightness Sun altitude
Rises 01:29:58 0° 357° (N) 2,846 8.1 -31.1°
Reaches altitude 10° 01:32:15 10° 3° (N) 1,936 7.0 -31.1°
Enters shadow 01:34:37 29° 20° (NNE) 1,087 5.3 -31.0°
